Location: Bieujac
(44.5398°N, 0.1549°W)
Time: 22:26:11
(UTC+00:00)

NOSS 3-3 (A) - Pass Details

Date: 26 February 2020
Orbit: 833 x 1379 km, 63.4° (Epoch: 03 April)

Event Time Altitude Azimuth Distance (km) Brightness Sun altitude
Exits shadow 04:28:55 35° 195° (SSW) 1,402 4.6 -24.8°
Maximum altitude 04:31:26 69° 123° (ESE) 989 4.1 -24.4°
Drops below altitude 10° 04:37:55 10° 41° (NE) 2,814 7.1 -23.2°
Sets 04:40:42 0° 39° (NE) 3,854 7.9 -22.7°
